Location: Unspecified
(50.7693°N, 0.0000°E)
Time: 13:27:46
(UTC+00:00)

Transit 4A - Pass Details

Date: 04 July 2019
Orbit: 862 x 982 km, 66.8° (Epoch: 17 July)

Event Time Altitude Azimuth Distance (km) Brightness Sun altitude
Rises 10:58:06 0° 312° (NW) 3,696 10.7 59.3°
Reaches altitude 10° 11:01:21 10° 327° (NNW) 2,746 10.2 59.5°
Maximum altitude 11:06:14 22° 17° (NNE) 1,999 9.7 59.9°
Drops below altitude 10° 11:11:03 10° 67° (ENE) 2,712 10.5 60.2°
Sets 11:14:15 0° 82° (E) 3,640 11.1 60.5°
